Location: Cahas Mountain Overlook
(37.0833°N, 80.1000°W)
Time: 19:36:35
(UTC-05:00)

Vanguard 3 - Pass Details

Date: 08 December 2023
Orbit: 508 x 3239 km, 33.4° (Epoch: 23 February)

Event Time Altitude Azimuth Distance (km) Brightness Sun altitude
Rises 22:57:42 0° 263° (W) 6,309 11.9 -68.5°
Reaches altitude 10° 23:02:31 10° 262° (W) 4,894 11.2 -69.2°
Enters shadow 23:03:24 12° 261° (W) 4,626 11.0 -69.4°
